Weather History for Cheyenne, WY

Change the Weather History Date:

Tuesday, July 30, 2013

  Actual Average Record
Temperature  
Mean Temperature 68 °F 70 °F  
Max Temperature 84 °F 84 °F 97 °F (2006)
Min Temperature 51 °F 56 °F 41 °F (1971)
Degree Days  
Heating Degree Days 0 1  
Month to date heating degree days 7 30  
Since 1 June heating degree days 69 164  
Since 1 July heating degree days 7 30  
Cooling Degree Days 3 5  
Month to date cooling degree days 157 158  
Year to date cooling degree days 280 208  
Since 1 June cooling degree days 274 205  
Growing Degree Days 18 (Base 50)    
Moisture  
Dew Point 47 °F    
Average Humidity 52    
Maximum Humidity 83    
Minimum Humidity 21    
Precipitation  
Precipitation 0.08 in 0.07 in 0.98 in (1997)
Month to date precipitation 1.58 2.11  
Year to date precipitation 7.22 10.42  
Snow  
Snow 0.00 in 0.00 in - ()
Month to date snowfall 0.0 0.0  
Since 1 July snowfall 0.0 0.0  
Snow Depth 0.00 in    
Sea Level Pressure  
Sea Level Pressure 30.10 in    
Wind  
Wind Speed 6 mph (NW)    
Max Wind Speed 31 mph    
Max Gust Speed 41 mph    
Visibility 10 miles    
Events Rain , Thunderstorm    
T = Trace of Precipitation, MM = Missing Value Source: NWS Daily Summary

Daily Weather History Graph

Daily Weather History Graph

Search for Another Location

Airport:

Trip Planner

Search our weather history database for the weather conditions in past years. The results will help you decide how hot, cold, wet, or windy it might be!

Date:

Astronomy

Jul. 30, 2013 Rise Set
Actual Time 5:53 AM MDT 8:17 PM MDT
Civil Twilight 5:21 AM MDT 8:48 PM MDT
Nautical Twilight 4:43 AM MDT 9:27 PM MDT
Astronomical Twilight 4:00 AM MDT 10:09 PM MDT
Moon 12:13 AM MDT (7/30) 2:39 PM MDT (7/30)
Length of Visible Light 15h 26m
Length of Day
14h 24m
Last Quarter, 40% of the Moon is Illuminated
Jul 30
Last Quarter
Aug 6
New
Aug 14
First Quarter
Aug 20
Full
Aug 28
Last Quarter

Hourly Weather History & Observations

Time (MDT) Temp. Dew Point Humidity Pressure Visibility Wind Dir Wind Speed Gust Speed Precip Events Conditions
12:53 AM 59.0 °F 46.9 °F 64% 30.05 in 10.0 mi NW 5.8 mph - N/A   Clear
1:53 AM 57.0 °F 48.9 °F 74% 30.02 in 10.0 mi Calm Calm - N/A   Clear
2:53 AM 55.0 °F 46.9 °F 74% 30.04 in 10.0 mi NW 4.6 mph - N/A   Clear
3:53 AM 54.0 °F 46.9 °F 77% 30.05 in 10.0 mi Calm Calm - N/A   Clear
4:53 AM 52.0 °F 46.9 °F 83% 30.07 in 10.0 mi West 3.5 mph - N/A   Clear
5:53 AM 51.1 °F 46.0 °F 83% 30.07 in 10.0 mi NW 3.5 mph - N/A   Clear
6:53 AM 55.9 °F 46.9 °F 72% 30.09 in 10.0 mi West 4.6 mph - N/A   Clear
7:53 AM 64.0 °F 48.0 °F 56% 30.08 in 10.0 mi WSW 5.8 mph - N/A   Clear
8:53 AM 70.0 °F 45.0 °F 41% 30.08 in 10.0 mi NW 6.9 mph - N/A   Clear
9:53 AM 73.0 °F 46.0 °F 38% 30.06 in 10.0 mi North 4.6 mph - N/A   Clear
10:53 AM 75.9 °F 42.1 °F 30% 30.06 in 10.0 mi NW 9.2 mph - N/A   Clear
11:53 AM 78.1 °F 43.0 °F 29% 30.05 in 10.0 mi NNW 8.1 mph 21.9 mph N/A   Clear
12:53 PM 81.0 °F 42.1 °F 25% 30.04 in 10.0 mi NW 9.2 mph - N/A   Partly Cloudy
1:53 PM 84.0 °F 42.1 °F 23% 30.01 in 10.0 mi NNE 10.4 mph 18.4 mph N/A   Scattered Clouds
2:53 PM 80.1 °F 37.9 °F 22% 30.03 in 10.0 mi NW 8.1 mph - N/A   Mostly Cloudy
3:19 PM 68.0 °F 48.2 °F 49% 30.31 in 3.0 mi West 9.2 mph 41.4 mph 0.01 in Rain Heavy Rain
3:43 PM 73.4 °F 55.4 °F 53% 30.28 in 10.0 mi South 6.9 mph - 0.08 in Thunderstorm Scattered Clouds
3:53 PM 75.9 °F 54.0 °F 46% 30.05 in 10.0 mi South 5.8 mph - 0.08 in   Partly Cloudy
4:02 PM 77.0 °F 51.8 °F 41% 30.27 in 10.0 mi SSE 5.8 mph - N/A Thunderstorm Partly Cloudy
4:17 PM 78.8 °F 46.4 °F 32% 30.27 in 10.0 mi ESE 3.5 mph - N/A   Clear
4:53 PM 78.1 °F 46.9 °F 33% 30.04 in 10.0 mi South 4.6 mph - N/A   Clear
5:53 PM 77.0 °F 46.0 °F 33% 30.05 in 10.0 mi SSE 8.1 mph - 0.00 in   Scattered Clouds
6:53 PM 75.0 °F 46.9 °F 37% 30.04 in 10.0 mi SSW 9.2 mph - N/A   Overcast
7:20 PM 68.0 °F 48.2 °F 49% 30.31 in 10.0 mi North 10.4 mph 25.3 mph 0.00 in Rain Light Rain
7:53 PM 70.0 °F 48.0 °F 46% 30.07 in 10.0 mi NNE 9.2 mph - 0.00 in   Mostly Cloudy
8:53 PM 66.0 °F 48.0 °F 52% 30.07 in 10.0 mi Calm Calm - N/A   Clear
9:53 PM 62.1 °F 48.9 °F 62% 30.11 in 10.0 mi North 5.8 mph - N/A   Clear
10:53 PM 61.0 °F 51.1 °F 70% 30.12 in 10.0 mi West 6.9 mph - N/A   Scattered Clouds
11:53 PM 61.0 °F 48.9 °F 64% 30.12 in 10.0 mi NNE 5.8 mph - N/A   Clear